N3TCR-13 Weather Reports


Display with metric or nautical units.
time (UTC)temp
F
wind
direction
speed
MPH
gust
MPH
rain 1hr
in
rain 24hr
in
rain mn
in
humidity
%
barometer
mb
20260507120017 51 339 1.0 2.0 0.00 0.24 0.00 100 997.0
20260507114517 51 345 0.0 1.0 0.00 0.25 0.00 100 997.1
20260507113017 51 30 0.0 1.0 0.00 0.25 0.00 100 997.1
20260507111517 51 0.0 0.0 0.00 0.25 0.00 100 997.0
20260507110017 51 313 0.0 0.0 0.00 0.25 0.00 100 996.8
20260507104538 51 321 0.0 1.0 0.00 0.25 0.00 100 996.6
20260507103037 51 327 0.0 1.0 0.00 0.25 0.00 100 996.5
20260507101517 51 330 0.0 2.0 0.00 0.25 0.00 100 996.3
20260507100017 51 330 0.0 1.0 0.00 0.25 0.00 100 996.0
20260507094517 51 324 1.0 3.0 0.00 0.25 0.00 100 996.0
20260507093018 51 326 1.0 2.0 0.00 0.25 0.00 100 996.1
20260507091518 51 338 1.0 2.0 0.00 0.25 0.00 100 996.1
20260507090021 51 334 1.0 2.0 0.00 0.25 0.00 100 995.9
20260507084521 52 344 1.0 2.0 0.00 0.25 0.00 100 995.8
20260507083058 52 329 1.0 3.0 0.00 0.25 0.00 100 995.7
20260507081516 52 332 1.0 2.0 0.00 0.25 0.00 100 995.4
20260507080017 52 321 1.0 4.0 0.00 0.25 0.00 100 995.4
20260507074517 52 329 1.0 3.0 0.00 0.25 0.00 100 995.4
20260507073017 52 331 1.0 2.0 0.00 0.25 0.00 100 995.3
20260507071517 52 338 0.0 2.0 0.00 0.25 0.00 100 995.4
20260507070016 53 349 1.0 4.0 0.00 0.25 0.00 100 995.8
20260507064516 53 332 1.0 4.0 0.00 0.25 0.00 100 995.5
20260507063017 54 337 1.0 4.0 0.00 0.25 0.00 100 995.7
20260507061517 54 326 1.0 3.0 0.00 0.25 0.00 100 995.8
20260507060017 54 334 1.0 3.0 0.00 0.25 0.00 100 995.6
20260507054517 55 333 1.0 3.0 0.00 0.25 0.00 100 995.5
20260507053017 55 341 2.0 4.0 0.00 0.25 0.00 100 995.5
20260507051517 55 339 1.0 2.0 0.00 0.25 0.00 100 995.5
20260507050039 55 347 1.0 2.0 0.00 0.25 0.00 100 995.4
20260507044537 55 322 0.0 1.0 0.00 0.25 0.00 100 995.8
20260507043038 55 333 1.0 2.0 0.01 0.25 0.00 100 995.4
20260507041518 56 348 1.0 2.0 0.01 0.25 0.00 100 995.0
20260507040037 56 357 1.0 4.0 0.01 0.25 0.00 100 995.1
20260507034516 56 339 1.0 5.0 0.01 0.25 0.25 100 995.1
20260507033036 57 341 1.0 4.0 0.00 0.24 0.24 100 994.8
20260507031516 58 338 1.0 3.0 0.00 0.24 0.24 100 994.8
20260507030017 58 331 1.0 3.0 0.00 0.24 0.24 100 994.8
20260507024537 58 343 1.0 4.0 0.00 0.24 0.24 100 994.6
20260507023017 58 351 1.0 4.0 0.00 0.24 0.24 100 994.7
20260507021517 59 355 1.0 2.0 0.00 0.24 0.24 100 994.6
20260507020018 59 334 1.0 3.0 0.00 0.24 0.24 100 994.6
20260507014522 60 340 1.0 5.0 0.00 0.24 0.24 100 994.3
20260507013020 61 342 0.0 4.0 0.00 0.24 0.24 100 994.5
20260507011517 62 359 1.0 6.0 0.01 0.24 0.24 100 994.7
20260507010017 62 347 1.0 6.0 0.01 0.24 0.24 100 994.5
20260507004517 62 352 0.0 2.0 0.01 0.24 0.24 100 994.4
20260507003017 63 198 0.0 1.0 0.02 0.24 0.24 100 994.2
20260507001517 63 38 0.0 2.0 0.01 0.23 0.23 100 994.0
20260507000017 64 38 0.0 1.0 0.01 0.23 0.23 100 993.8
20260506234517 65 5 1.0 3.0 0.01 0.23 0.23 100 993.4
20260506233017 67 11 0.0 1.0 0.00 0.22 0.22 100 993.2
20260506231517 67 66 1.0 2.0 0.00 0.22 0.22 100 993.0
20260506230017 68 51 0.0 2.0 0.00 0.22 0.22 100 993.0
20260506224516 68 49 1.0 4.0 0.00 0.22 0.22 100 993.1
20260506223041 68 51 1.0 4.0 0.00 0.22 0.22 100 993.0
20260506221517 68 72 1.0 4.0 0.00 0.22 0.22 100 992.9
20260506220017 67 64 1.0 4.0 0.00 0.22 0.22 100 993.1
20260506214516 67 58 1.0 4.0 0.00 0.22 0.22 100 993.0
20260506213017 67 61 1.0 2.0 0.00 0.22 0.22 100 992.8
20260506211517 67 65 1.0 2.0 0.00 0.22 0.22 100 992.7
20260506210017 67 47 1.0 4.0 0.00 0.22 0.22 100 992.5
20260506204517 67 65 1.0 3.0 0.00 0.22 0.22 100 992.4
20260506203016 67 305 0.0 2.0 0.00 0.22 0.22 100 992.6
20260506201517 67 24 1.0 3.0 0.00 0.22 0.22 100 992.7
20260506200017 67 49 1.0 5.0 0.00 0.22 0.22 100 992.7
20260506194537 68 54 2.0 6.0 0.00 0.22 0.22 100 992.7
20260506193017 69 3 1.0 4.0 0.00 0.22 0.22 100 992.7
20260506191537 67 45 1.0 4.0 0.00 0.22 0.22 100 992.7
20260506190018 67 45 2.0 7.0 0.00 0.22 0.22 100 992.9
20260506184517 67 49 2.0 7.0 0.00 0.22 0.22 100 993.1
20260506183017 66 39 2.0 8.0 0.00 0.22 0.22 100 993.1
20260506181519 65 46 2.0 8.0 0.00 0.22 0.22 100 993.1
20260506180016 65 48 3.0 13.0 0.00 0.22 0.22 100 993.3
20260506174516 64 57 2.0 6.0 0.00 0.22 0.22 100 993.3
20260506173016 64 51 3.0 8.0 0.00 0.22 0.22 100 993.2
20260506171517 63 50 3.0 9.0 0.00 0.22 0.22 100 993.3
20260506170017 62 53 3.0 9.0 0.00 0.22 0.22 100 993.3
20260506164516 61 39 3.0 9.0 0.00 0.22 0.22 100 993.2
20260506163016 61 49 3.0 9.0 0.00 0.22 0.22 100 993.3
20260506161517 60 47 3.0 11.0 0.00 0.22 0.22 100 993.3
20260506160016 60 51 3.0 8.0 0.00 0.22 0.22 100 993.5
20260506154517 61 61 3.0 8.0 0.00 0.22 0.22 100 993.4
20260506153017 60 60 3.0 12.0 0.04 0.22 0.22 100 993.3
20260506151517 60 51 4.0 11.0 0.05 0.22 0.22 100 993.5
20260506150037 59 63 3.0 7.0 0.06 0.22 0.22 100 993.7
20260506144537 59 79 4.0 9.0 0.07 0.22 0.22 100 994.0
20260506143017 60 73 4.0 11.0 0.05 0.18 0.18 100 994.0
20260506141517 60 86 3.0 9.0 0.06 0.17 0.17 100 993.7
20260506140017 60 72 3.0 10.0 0.07 0.16 0.16 100 993.9
20260506134517 60 83 3.0 7.0 0.07 0.15 0.15 100 993.9
20260506133019 60 49 3.0 7.0 0.07 0.13 0.13 100 994.4
20260506131521 60 80 3.0 7.0 0.08 0.11 0.11 100 994.4
20260506130017 60 67 2.0 6.0 0.08 0.09 0.09 100 994.3
20260506124517 60 58 2.0 5.0 0.08 0.08 0.08 100 994.1
20260506123016 60 59 3.0 9.0 0.06 0.06 0.06 100 994.3
20260506121516 61 58 3.0 8.0 0.03 0.03 0.03 100 994.6